Regional Weather Roundup
Issued by NWS

Home | Current Version | Previous Version | Graphics & Text | Print | Product List | Glossary On
Versions: 1 2 3 4 5 6 7 8 9 10 11 12 13 14 15 16 17 18 19 20 21 22 23 24 25 26 27 28 29 30 31 32 33 34 35 36 37 38 39 40 41 42 43 44 45 46 47 48 49 50
280
ASUS43 KFSD 191402
RWRSD

WEATHER ROUNDUP FOR SOUTH DAKOTA
NATIONAL WEATHER SERVICE SIOUX FALLS SD
900 AM CDT TUE SEP 19 2017

NOTE: "FAIR" INDICATES FEW OR NO CLOUDS BELOW 12,000 FEET WITH NO
SIGNIFICANT WEATHER AND/OR OBSTRUCTIONS TO VISIBILITY.


SDZ001>005-009-010-012>017-191500-
NORTHWEST AND NORTH CENTRAL SOUTH DAKOTA

CITY           SKY/WX    TMP DP  RH WIND       PRES   REMARKS
BUFFALO          N/A     59  45  59 W8        29.46R
FAITH            N/A     65  53  65 S14       29.50S
MOBRIDGE       CLOUDY    65  61  87 SE18      29.52F
$$

SDZ012>016-024>037-041>051-057-063-072>074-191500-
SOUTHWEST AND SOUTH CENTRAL SOUTH DAKOTA

CITY           SKY/WX    TMP DP  RH WIND       PRES   REMARKS
RAPID CTY ARPT SUNNY     57  48  72 S7        29.54F
PIERRE         CLOUDY    64  60  87 SE15G24   29.55F
CUSTER         CLOUDY    60  34  37 W8        29.67S
ELLSWORTH AFB  CLOUDY    61  47  61 NW8       29.54R
PHILIP         CLOUDY    71  59  65 S9        29.51F
PINE RIDGE     CLOUDY    64  55  72 S15       29.58S
SPEARFISH      FAIR      57  41  54 W6        29.60R
WINNER         FAIR      68  62  81 S13       29.60F
$$

SDZ004>011-016>023-039-040-191500-
NORTHEAST SOUTH DAKOTA

CITY           SKY/WX    TMP DP  RH WIND       PRES   REMARKS
ABERDEEN       CLOUDY    68  65  90 S18G26    29.66F
WATERTOWN      CLOUDY    65  65 100 SE15G23   29.74F FOG
BROOKINGS      CLOUDY    65  64  97 SE17      29.78F
SISSETON         N/A     66  65  96 SE15      29.73F
$$

SDZ017-020-022-023-036>040-048>070-191500-
SOUTHEAST SOUTH DAKOTA

CITY           SKY/WX    TMP DP  RH WIND       PRES   REMARKS
SIOUX FALLS    DRIZZLE   67  66  97 S13       29.77F FOG
HURON          CLOUDY    67  64  90 SE20      29.68F
CHAMBERLAIN    CLOUDY    64  64 100 SE18G25   29.63F FOG
MITCHELL       CLOUDY    68  65  90 SE18G26   29.70F
YANKTON        CLOUDY    68  65  90 SE12      29.74F
$$

ABBREVIATIONS USED IN REMARKS
   TC - TEMPERATURE IN CELSIUS
  WCI - WIND CHILL INDEX
   HX - HEAT INDEX
  VSB - VISIBILITY





USA.gov is the U.S. government's official web portal to all federal, state and local government web resources and services.